Location: Newark
(27.5900°N, 83.4900°E)
Time: 15:27:23
(UTC+00:00)

Hubble Space Telescope - Pass Details

Date: 15 December 2019
Orbit: 536 x 540 km, 28.5° (Epoch: 20 January)

Event Time Altitude Azimuth Distance (km) Brightness Sun altitude
Exits shadow 22:33:06 18° 102° (ESE) 1,369 3.5 -33.6°
Drops below altitude 10° 22:34:20 10° 93° (E) 1,785 4.2 -33.3°
Sets 22:36:43 0° 84° (E) 2,677 5.3 -32.8°
